"Pseudo-MPEC" for ZTF05fH

Created 2019 Aug 20 5:07:05 UT using Find_Orb

Click here for an explanation of pseudo-MPECs

 
 Astrometry: 
     ZTF05fH  C2019 08 09.19711021 37 44.97 +34 56 12.2    ~8ALb 20.49rUNEOCPI41
     ZTF05fH  C2019 08 09.21552021 37 46.26 +34 56 59.7    ~8ALb 20.37rUNEOCPI41
     ZTF05fH  C2019 08 09.23345921 37 47.51 +34 57 45.0    ~8ALb 20.44rUNEOCPI41
     ZTF05fH  C2019 08 09.24699021 37 48.40 +34 58 19.6    ~8ALb 20.49rUNEOCPI41
     ZTF05fH  C2019 08 09.24744021 37 48.44 +34 58 20.6    ~8ALb 20.57rUNEOCPI41

Station data:
(I41) Palomar Mountain--ZTF  (N33.357340 W116.859780)  US/California. 1.2-m
   f/2.44 Oschin Schmidt + CCD.

Orbital elements:  ZTF05fH
   Perihelion 2019 Aug 7.547873 +/- 33.7 TT = 13:08:56 (JD 2458703.047873)
Epoch 2019 Aug  9.0 TT = JDT 2458704.5   Earth MOID: 0.2400   Ma: 0.0507
M   0.32936027 +/- 23               (J2000 ecliptic)          AutoNEOCP
n   0.22681227 +/- 0.264            Peri.   45.77772 +/- 110
a   2.66292141 +/- 2.06             Node   273.62214 +/- 57
e   0.5474624 +/- 0.256             Incl.   12.82633 +/- 10
P   4.35                   H 21.5   G  0.15   U 11.8  SR
q 1.20507204 +/- 0.219    Q 4.12077078 +/- 38.7
From 5 observations 2019 Aug. 9 (72.5 min); mean residual 0".14
Residuals in arcseconds: 
190809 I41  .05-  .13-    190809 I41  .21+  .15-    190809 I41  .02-  .06-    
190809 I41  .01-  .27+    190809 I41  .13-  .08+    

Ephemerides (geocentric):
Date (UTC) HH   RA              Dec         delta   r     elong  mag " sig PA
---- -- -- --  -------------   -----------  ------ ------ -----  --- ---- ---
2019 08 20 05  21 51 49.118   +40 50 11.65  .29902 1.2140 126.5 21.0  55d  26
2019 08 20 06  21 51 52.243   +40 51 09.60  .29912 1.2140 126.5 21.0  55d  26
2019 08 20 07  21 51 55.367   +40 52 07.38  .29923 1.2141 126.5 21.0  55d  26
2019 08 20 08  21 51 58.490   +40 53 05.01  .29933 1.2141 126.5 21.0  55d  26
2019 08 20 09  21 52 01.613   +40 54 02.47  .29943 1.2142 126.5 21.0  55d  26
2019 08 20 10  21 52 04.736   +40 54 59.77  .29953 1.2143 126.5 21.0  55d  26
2019 08 20 11  21 52 07.858   +40 55 56.92  .29964 1.2143 126.5 21.0  55d  26
2019 08 20 12  21 52 10.979   +40 56 53.90  .29974 1.2144 126.5 21.0  55d  26
2019 08 20 13  21 52 14.100   +40 57 50.72  .29984 1.2144 126.5 21.0  56d  26
2019 08 20 14  21 52 17.220   +40 58 47.38  .29995 1.2145 126.5 21.0  56d  26
2019 08 20 15  21 52 20.340   +40 59 43.88  .30005 1.2145 126.5 21.0  56d  26
2019 08 20 16  21 52 23.459   +41 00 40.22  .30015 1.2146 126.5 21.0  56d  26
2019 08 20 17  21 52 26.578   +41 01 36.40  .30026 1.2147 126.5 21.0  56d  26
2019 08 20 18  21 52 29.696   +41 02 32.42  .30036 1.2147 126.5 21.0  56d  26
2019 08 20 19  21 52 32.814   +41 03 28.28  .30046 1.2148 126.5 21.0  56d  26
2019 08 20 20  21 52 35.931   +41 04 23.98  .30057 1.2149 126.5 21.0  56d  26
2019 08 20 21  21 52 39.048   +41 05 19.52  .30067 1.2149 126.5 21.0  56d  26
2019 08 20 22  21 52 42.164   +41 06 14.90  .30077 1.2150 126.5 21.0  56d  26
2019 08 20 23  21 52 45.279   +41 07 10.12  .30088 1.2150 126.5 21.0  56d  26
2019 08 21 00  21 52 48.394   +41 08 05.18  .30098 1.2151 126.5 21.0  56d  26
2019 08 21 01  21 52 51.509   +41 09 00.08  .30108 1.2152 126.5 21.0  56d  27
2019 08 21 02  21 52 54.623   +41 09 54.82  .30119 1.2152 126.5 21.0  56d  27
2019 08 21 03  21 52 57.736   +41 10 49.40  .30129 1.2153 126.5 21.0  56d  27
2019 08 21 04  21 53 00.849   +41 11 43.83  .30140 1.2153 126.5 21.0  56d  27
2019 08 21 05  21 53 03.962   +41 12 38.09  .30150 1.2154 126.5 21.0  57d  27
2019 08 21 06  21 53 07.074   +41 13 32.20  .30160 1.2155 126.5 21.0  57d  27
2019 08 21 07  21 53 10.185   +41 14 26.14  .30171 1.2155 126.5 21.0  57d  27
2019 08 21 08  21 53 13.296   +41 15 19.93  .30181 1.2156 126.5 21.0  57d  27
2019 08 21 09  21 53 16.406   +41 16 13.56  .30192 1.2157 126.5 21.0  57d  27
2019 08 21 10  21 53 19.516   +41 17 07.03  .30202 1.2157 126.5 21.0  57d  27
2019 08 21 11  21 53 22.625   +41 18 00.34  .30212 1.2158 126.5 21.0  57d  27
2019 08 21 12  21 53 25.734   +41 18 53.49  .30223 1.2159 126.5 21.0  57d  27
2019 08 21 13  21 53 28.842   +41 19 46.49  .30233 1.2159 126.5 21.0  57d  27
2019 08 21 14  21 53 31.950   +41 20 39.33  .30244 1.2160 126.5 21.0  57d  27
2019 08 21 15  21 53 35.057   +41 21 32.00  .30254 1.2160 126.5 21.0  57d  27
2019 08 21 16  21 53 38.164   +41 22 24.52  .30265 1.2161 126.4 21.0  57d  27
2019 08 21 17  21 53 41.270   +41 23 16.89  .30275 1.2162 126.4 21.0  57d  27
2019 08 21 18  21 53 44.376   +41 24 09.09  .30286 1.2162 126.4 21.0  57d  27
2019 08 21 19  21 53 47.481   +41 25 01.14  .30296 1.2163 126.4 21.0  57d  27
2019 08 21 20  21 53 50.586   +41 25 53.03  .30307 1.2164 126.4 21.0  57d  27
2019 08 21 21  21 53 53.690   +41 26 44.76  .30317 1.2164 126.4 21.0  57d  27
2019 08 21 22  21 53 56.794   +41 27 36.34  .30328 1.2165 126.4 21.0  57d  27
2019 08 21 23  21 53 59.897   +41 28 27.75  .30338 1.2166 126.4 21.0  57d  27
2019 08 22 00  21 54 03.000   +41 29 19.01  .30349 1.2166 126.4 21.0  57d  27
2019 08 22 01  21 54 06.102   +41 30 10.12  .30359 1.2167 126.4 21.0  58d  27
2019 08 22 02  21 54 09.204   +41 31 01.06  .30370 1.2168 126.4 21.0  58d  27
2019 08 22 03  21 54 12.305   +41 31 51.85  .30380 1.2168 126.4 21.0  58d  27
2019 08 22 04  21 54 15.406   +41 32 42.48  .30391 1.2169 126.4 21.0  58d  27